• In Uzbekistan
  • List of Countries
  • For 7 days
  • Water Temperature
  • Weather Map
  • Weather Widgets
  • user-avatar
    Login

    Hourly Weather Haikou

    Today, 25 August, Sunday

    Time Temperature Precipitation Wind Pressure Humidity
    00:00 +29°C° 0 mm 3 mps 753 mmHg 82%
    01:00 +29°C° 0 mm 4 mps 752 mmHg 82%
    02:00 +29°C° 0 mm 4 mps 752 mmHg 83%
    03:00 +29°C° 0 mm 4 mps 752 mmHg 85%
    04:00 +29°C° 0 mm 4 mps 752 mmHg 86%
    05:00 +29°C° 0.1 mm 4 mps 752 mmHg 85%
    06:00 +30°C° 0.1 mm 4 mps 752 mmHg 84%
    07:00 +30°C° 0 mm 4 mps 753 mmHg 83%
    08:00 +32°C° 0.2 mm 5 mps 753 mmHg 81%
    09:00 +33°C° 0.2 mm 5 mps 753 mmHg 78%
    10:00 +34°C° 0.2 mm 6 mps 753 mmHg 76%
    11:00 +34°C° 0.4 mm 5 mps 752 mmHg 74%
    12:00 +35°C° 0.4 mm 5 mps 752 mmHg 73%
    13:00 +35°C° 0 mm 6 mps 752 mmHg 70%
    14:00 +35°C° 0.3 mm 5 mps 752 mmHg 70%
    15:00 +35°C° 0.3 mm 4 mps 751 mmHg 71%
    16:00 +35°C° 0.3 mm 4 mps 751 mmHg 71%
    17:00 +34°C° 0 mm 3 mps 751 mmHg 73%
    18:00 +32°C° 0 mm 2 mps 751 mmHg 75%
    19:00 +31°C° 0 mm 2 mps 752 mmHg 78%
    20:00 +31°C° 0 mm 2 mps 752 mmHg 79%
    21:00 +31°C° 0 mm 2 mps 752 mmHg 80%
    22:00 +30°C° 0 mm 2 mps 753 mmHg 82%
    23:00 +30°C° 0 mm 2 mps 753 mmHg 82%

    Tomorrow, 26 August, Monday

    Time Temperature Precipitation Wind Pressure Humidity
    00:00 +30°C° 0 mm 2 mps 752 mmHg 82%
    01:00 +30°C° 0 mm 2 mps 752 mmHg 82%
    02:00 +29°C° 1.8 mm 3 mps 752 mmHg 84%
    03:00 +29°C° 1.8 mm 3 mps 752 mmHg 86%
    04:00 +28°C° 1.8 mm 3 mps 752 mmHg 88%
    05:00 +29°C° 1.1 mm 3 mps 752 mmHg 85%
    06:00 +30°C° 1.1 mm 3 mps 753 mmHg 82%
    07:00 +30°C° 1.1 mm 3 mps 753 mmHg 79%
    08:00 +31°C° 0.8 mm 3 mps 753 mmHg 76%
    09:00 +33°C° 0.8 mm 3 mps 754 mmHg 72%
    10:00 +34°C° 0.8 mm 3 mps 754 mmHg 69%
    11:00 +34°C° 0.9 mm 3 mps 753 mmHg 68%
    12:00 +35°C° 0.9 mm 3 mps 753 mmHg 66%
    13:00 +35°C° 0.9 mm 3 mps 753 mmHg 65%
    14:00 +35°C° 2.6 mm 3 mps 752 mmHg 69%
    15:00 +34°C° 2.6 mm 3 mps 752 mmHg 73%
    16:00 +33°C° 2.6 mm 3 mps 752 mmHg 77%
    17:00 +32°C° 0.1 mm 4 mps 752 mmHg 79%
    18:00 +32°C° 0.1 mm 4 mps 753 mmHg 82%
    19:00 +30°C° 0.1 mm 4 mps 753 mmHg 84%
    20:00 +30°C° 0.4 mm 4 mps 754 mmHg 85%
    21:00 +29°C° 0.4 mm 4 mps 754 mmHg 86%
    22:00 +29°C° 0.4 mm 4 mps 755 mmHg 87%
    23:00 +29°C° 0.7 mm 4 mps 754 mmHg 87%

    Day after tomorrow, 27 August, Tuesday

    Time Temperature Precipitation Wind Pressure Humidity
    00:00 +28°C° 0.7 mm 3 mps 754 mmHg 86%
    01:00 +28°C° 0.7 mm 2 mps 754 mmHg 86%
    02:00 +28°C° 0.1 mm 2 mps 754 mmHg 85%
    03:00 +28°C° 0.1 mm 2 mps 753 mmHg 84%
    04:00 +28°C° 0.1 mm 2 mps 753 mmHg 83%
    05:00 +29°C° 0 mm 2 mps 754 mmHg 82%
    06:00 +29°C° 0 mm 2 mps 754 mmHg 80%
    07:00 +29°C° 0 mm 2 mps 754 mmHg 79%
    08:00 +31°C° 0 mm 1 mps 755 mmHg 73%
    09:00 +32°C° 0 mm 1 mps 755 mmHg 68%
    10:00 +33°C° 0 mm 1 mps 755 mmHg 62%
    11:00 +34°C° 0 mm 1 mps 755 mmHg 61%
    12:00 +34°C° 0 mm 1 mps 754 mmHg 60%
    13:00 +35°C° 0 mm 1 mps 754 mmHg 59%
    14:00 +36°C° 0.1 mm 2 mps 754 mmHg 62%
    15:00 +35°C° 0.1 mm 3 mps 753 mmHg 66%
    16:00 +35°C° 0.1 mm 4 mps 753 mmHg 69%
    17:00 +34°C° 0.1 mm 4 mps 753 mmHg 73%
    18:00 +32°C° 0.1 mm 4 mps 754 mmHg 76%
    19:00 +30°C° 0.1 mm 4 mps 754 mmHg 80%
    20:00 +30°C° 0 mm 4 mps 755 mmHg 81%
    21:00 +30°C° 0 mm 4 mps 756 mmHg 83%
    22:00 +30°C° 0 mm 4 mps 756 mmHg 84%
    23:00 +30°C° 0 mm 4 mps 756 mmHg 85%

    28 August, Wednesday

    Time Temperature Precipitation Wind Pressure Humidity
    00:00 +29°C° 0 mm 3 mps 756 mmHg 86%
    01:00 +29°C° 0 mm 3 mps 755 mmHg 86%
    02:00 +29°C° 0 mm 2 mps 755 mmHg 87%
    03:00 +29°C° 0 mm 2 mps 755 mmHg 87%
    04:00 +29°C° 0 mm 2 mps 755 mmHg 87%
    05:00 +29°C° 0.2 mm 1 mps 755 mmHg 85%
    06:00 +30°C° 0.2 mm 1 mps 756 mmHg 82%
    07:00 +30°C° 0.2 mm 1 mps 756 mmHg 80%
    08:00 +32°C° 0 mm 1 mps 756 mmHg 74%
    09:00 +34°C° 0 mm 2 mps 756 mmHg 68%
    10:00 +35°C° 0 mm 2 mps 756 mmHg 62%
    11:00 +35°C° 0 mm 2 mps 756 mmHg 62%
    12:00 +35°C° 0 mm 3 mps 755 mmHg 62%
    13:00 +35°C° 0 mm 3 mps 755 mmHg 62%
    14:00 +35°C° 0 mm 3 mps 754 mmHg 64%
    15:00 +34°C° 0 mm 4 mps 753 mmHg 66%
    16:00 +34°C° 0 mm 4 mps 753 mmHg 68%
    17:00 +33°C° 0 mm 3 mps 753 mmHg 71%
    18:00 +31°C° 0 mm 3 mps 753 mmHg 74%
    19:00 +30°C° 0 mm 2 mps 754 mmHg 77%
    20:00 +30°C° 0 mm 2 mps 754 mmHg 78%
    21:00 +30°C° 0 mm 2 mps 755 mmHg 79%
    22:00 +30°C° 0 mm 1 mps 755 mmHg 79%
    23:00 +30°C° 0 mm 2 mps 754 mmHg 80%

    29 August, Thursday

    Time Temperature Precipitation Wind Pressure Humidity
    00:00 +30°C° 0 mm 2 mps 754 mmHg 80%
    01:00 +30°C° 0 mm 2 mps 753 mmHg 80%
    02:00 +30°C° 0 mm 3 mps 753 mmHg 80%
    03:00 +30°C° 0 mm 3 mps 753 mmHg 80%
    04:00 +30°C° 0 mm 3 mps 753 mmHg 80%
    05:00 +30°C° 0.3 mm 4 mps 753 mmHg 80%
    06:00 +32°C° 0.3 mm 5 mps 753 mmHg 80%
    07:00 +32°C° 0.3 mm 6 mps 753 mmHg 79%
    08:00 +32°C° 1.4 mm 6 mps 753 mmHg 78%
    09:00 +33°C° 1.4 mm 7 mps 753 mmHg 77%
    10:00 +33°C° 1.4 mm 8 mps 754 mmHg 76%
    11:00 +33°C° 2.5 mm 8 mps 753 mmHg 77%
    12:00 +33°C° 2.5 mm 8 mps 752 mmHg 78%
    13:00 +33°C° 2.5 mm 9 mps 752 mmHg 79%
    14:00 +33°C° 1.8 mm 8 mps 751 mmHg 79%
    15:00 +33°C° 1.8 mm 8 mps 751 mmHg 79%
    16:00 +32°C° 1.8 mm 7 mps 751 mmHg 79%
    17:00 +32°C° 0.6 mm 7 mps 751 mmHg 81%
    18:00 +30°C° 0.6 mm 7 mps 751 mmHg 83%
    19:00 +30°C° 0.6 mm 6 mps 752 mmHg 85%
    20:00 +30°C° 0.5 mm 6 mps 752 mmHg 85%
    21:00 +29°C° 0.5 mm 6 mps 753 mmHg 86%
    22:00 +29°C° 0.5 mm 6 mps 753 mmHg 87%
    23:00 +29°C° 0.1 mm 6 mps 753 mmHg 87%

    30 August, Friday

    Time Temperature Precipitation Wind Pressure Humidity
    00:00 +29°C° 0.1 mm 6 mps 752 mmHg 87%
    01:00 +29°C° 0.1 mm 5 mps 752 mmHg 87%
    02:00 +29°C° 0 mm 6 mps 752 mmHg 87%
    03:00 +29°C° 0 mm 6 mps 751 mmHg 86%
    04:00 +29°C° 0 mm 6 mps 751 mmHg 86%
    05:00 +29°C° 0.1 mm 7 mps 751 mmHg 85%
    06:00 +30°C° 0.1 mm 7 mps 752 mmHg 84%
    07:00 +31°C° 0.1 mm 8 mps 752 mmHg 83%
    08:00 +32°C° 0.3 mm 8 mps 752 mmHg 81%
    09:00 +32°C° 0.3 mm 8 mps 752 mmHg 80%
    10:00 +32°C° 0.3 mm 8 mps 752 mmHg 78%
    11:00 +33°C° 0.5 mm 8 mps 752 mmHg 76%
    12:00 +34°C° 0.5 mm 8 mps 751 mmHg 74%
    13:00 +34°C° 0.5 mm 7 mps 751 mmHg 72%
    14:00 +34°C° 0.9 mm 7 mps 751 mmHg 74%
    15:00 +33°C° 0.9 mm 7 mps 751 mmHg 76%
    16:00 +32°C° 0.9 mm 7 mps 750 mmHg 79%
    17:00 +32°C° 0.2 mm 7 mps 751 mmHg 81%
    18:00 +30°C° 0.2 mm 6 mps 751 mmHg 83%
    19:00 +29°C° 0.2 mm 6 mps 752 mmHg 85%
    20:00 +29°C° 0.1 mm 6 mps 752 mmHg 85%
    21:00 +29°C° 0.1 mm 6 mps 753 mmHg 86%
    22:00 +29°C° 0.1 mm 6 mps 753 mmHg 87%
    23:00 +29°C° 0.2 mm 5 mps 753 mmHg 87%
    Show more